Weather History for Wilmington, OH

Change the Weather History Date:

Friday, April 4, 2014

  Actual Average (KDAY) Record (KDAY)
Temperature  
Mean Temperature 52 °F 48 °F  
Max Temperature 64 °F 58 °F 81 °F (1986)
Min Temperature 39 °F 38 °F 22 °F (1995)
Degree Days  
Heating Degree Days 12 18  
Month to date heating degree days 73  
Since 1 July heating degree days 5112  
Cooling Degree Days 0 0  
Month to date cooling degree days 0  
Year to date cooling degree days 0  
Growing Degree Days 2 (Base 50)    
Moisture  
Dew Point 50 °F    
Average Humidity 86    
Maximum Humidity 100    
Minimum Humidity 62    
Precipitation  
Precipitation 0.78 in 0.12 in 1.43 in (2011)
Month to date precipitation 0.50  
Year to date precipitation 8.79  
Snow  
Snow 0.00 in 0.10 in 1.20 in (1954)
Month to date snowfall 0.2  
Since 1 July snowfall 22.9  
Snow Depth -    
Sea Level Pressure  
Sea Level Pressure 29.72 in    
Wind  
Wind Speed 11 mph (SSW)    
Max Wind Speed 30 mph    
Max Gust Speed 43 mph    
Visibility 7 miles    
Events Rain , Thunderstorm    
T = Trace of Precipitation, MM = Missing Value Source: NWS Daily Summary

Daily Weather History Graph

Daily Weather History Graph

Search for Another Location

Airport:

Trip Planner

Search our weather history database for the weather conditions in past years. The results will help you decide how hot, cold, wet, or windy it might be!

Date:

Astronomy

Apr. 04, 2014 Rise Set
Actual Time 7:14 AM EDT 8:02 PM EDT
Civil Twilight 6:47 AM EDT 8:29 PM EDT
Nautical Twilight 6:15 AM EDT 9:01 PM EDT
Astronomical Twilight 5:42 AM EDT 9:35 PM EDT
Moon 10:32 AM EDT (4/4) 12:18 AM EDT (4/4)
Length of Visible Light 13h 41m
Length of Day
12h 47m
Waxing Crescent, 25% of the Moon is Illuminated
Apr 4
Waxing Crescent
Apr 7
First Quarter
Apr 15
Full
Apr 22
Last Quarter
Apr 29
New

Hourly Weather History & Observations

Time (EDT) Temp. Windchill Dew Point Humidity Pressure Visibility Wind Dir Wind Speed Gust Speed Precip Events Conditions
12:16 AM 54.0 °F - 53.1 °F 97% 29.76 in 2.0 mi South 4.6 mph - N/A   Clear
12:26 AM 53.1 °F - 53.1 °F 100% 29.76 in 3.0 mi South 4.6 mph - N/A   Clear
12:54 AM 55.9 °F - 55.0 °F 97% 29.77 in 7.0 mi South 10.4 mph - N/A   Clear
1:54 AM 55.9 °F - 55.0 °F 97% 29.77 in 9.0 mi South 5.8 mph - N/A   Mostly Cloudy
2:36 AM 55.9 °F - 55.0 °F 97% 29.74 in 6.0 mi SE 4.6 mph - N/A   Overcast
2:54 AM 55.9 °F - 55.0 °F 97% 29.76 in 6.0 mi South 4.6 mph - N/A   Overcast
3:16 AM 55.9 °F - 55.0 °F 97% 29.73 in 4.0 mi South 5.8 mph - 0.00 in Rain Light Rain
3:25 AM 57.0 °F - 55.9 °F 96% 29.74 in 4.0 mi South 6.9 mph - 0.04 in Rain , Thunderstorm Rain
3:37 AM 57.0 °F - 55.9 °F 96% 29.74 in 4.0 mi SW 6.9 mph - 0.07 in Rain , Thunderstorm Rain
3:49 AM 55.4 °F - 55.4 °F 100% 29.72 in 2.5 mi SW 5.8 mph - 0.12 in Rain , Thunderstorm Heavy Rain
3:54 AM 57.0 °F - 55.9 °F 96% 29.73 in 2.0 mi SW 5.8 mph - 0.15 in Rain , Thunderstorm Heavy Thunderstorms and Rain
4:01 AM 57.0 °F - 55.9 °F 96% 29.72 in 2.5 mi SW 6.9 mph - 0.03 in Rain , Thunderstorm Thunderstorms and Rain
4:06 AM 55.9 °F - 55.9 °F 100% 29.73 in 2.5 mi SSW 6.9 mph - 0.05 in Rain , Thunderstorm Rain
4:12 AM 55.9 °F - 55.9 °F 100% 29.73 in 3.0 mi SSW 5.8 mph - 0.07 in Rain , Thunderstorm Rain
4:20 AM 57.0 °F - 55.9 °F 96% 29.73 in 2.5 mi SW 3.5 mph - 0.11 in Rain Rain
4:31 AM 55.9 °F - 55.9 °F 100% 29.72 in 1.8 mi South 3.5 mph - 0.17 in Rain Heavy Rain
4:40 AM 55.9 °F - 55.9 °F 100% 29.70 in 2.0 mi SE 3.5 mph - 0.22 in Rain , Thunderstorm Rain
4:50 AM 55.4 °F - 55.4 °F 100% 29.67 in 2.0 mi ESE 5.8 mph - 0.26 in Rain Rain
4:54 AM 55.9 °F - 55.9 °F 100% 29.68 in 3.0 mi ESE 5.8 mph - 0.27 in Rain Rain
5:14 AM 55.9 °F - 55.9 °F 100% 29.67 in 2.5 mi SSE 5.8 mph - 0.08 in Rain Rain
5:22 AM 55.9 °F - 55.9 °F 100% 29.66 in 3.0 mi SE 9.2 mph - 0.11 in Rain Rain
5:54 AM 55.9 °F - 55.9 °F 100% 29.65 in 4.0 mi South 6.9 mph - 0.19 in Rain Rain
6:54 AM 57.0 °F - 55.9 °F 96% 29.64 in 8.0 mi South 9.2 mph - 0.09 in Rain Light Rain
7:54 AM 57.0 °F - 55.9 °F 96% 29.64 in 10.0 mi South 11.5 mph - 0.02 in Rain Light Rain
8:02 AM 57.0 °F - 55.0 °F 93% 29.63 in 10.0 mi South 11.5 mph - 0.00 in Rain Light Rain
8:20 AM 57.0 °F - 55.9 °F 96% 29.62 in 7.0 mi South 9.2 mph - 0.02 in Rain Light Rain
8:54 AM 57.0 °F - 55.0 °F 93% 29.63 in 10.0 mi SSW 9.2 mph - 0.03 in Rain Light Rain
9:54 AM 57.0 °F - 55.9 °F 96% 29.61 in 10.0 mi SSW 15.0 mph - 0.02 in Rain Light Rain
10:54 AM 57.9 °F - 55.9 °F 93% 29.55 in 10.0 mi SSE 20.7 mph 33.4 mph 0.01 in Rain Light Rain
11:54 AM 63.0 °F - 55.9 °F 78% 29.56 in 10.0 mi SSW 20.7 mph 27.6 mph 0.00 in   Clear
12:54 PM 63.0 °F - 55.0 °F 75% 29.57 in 10.0 mi SW 23.0 mph 39.1 mph N/A   Overcast
1:30 PM 62.1 °F - 55.0 °F 78% 29.58 in 10.0 mi SW 26.5 mph 38.0 mph N/A   Overcast
1:54 PM 63.0 °F - 55.9 °F 78% 29.59 in 10.0 mi SW 24.2 mph 35.7 mph 0.00 in Rain Light Rain
2:28 PM 64.9 °F - 55.9 °F 73% 29.59 in 10.0 mi SW 26.5 mph 35.7 mph 0.00 in   Mostly Cloudy
2:38 PM 64.0 °F - 55.0 °F 73% 29.59 in 10.0 mi SW 27.6 mph 32.2 mph 0.00 in   Mostly Cloudy
2:54 PM 64.0 °F - 53.1 °F 67% 29.60 in 10.0 mi WSW 24.2 mph 33.4 mph 0.00 in   Mostly Cloudy
3:50 PM 57.2 °F - 48.2 °F 72% 29.64 in 10.0 mi West 27.6 mph 41.4 mph N/A   Mostly Cloudy
3:54 PM 55.9 °F - 48.9 °F 77% 29.65 in 10.0 mi West 29.9 mph 38.0 mph N/A   Overcast
4:54 PM 50.0 °F - 44.1 °F 80% 29.73 in 10.0 mi West 26.5 mph 36.8 mph N/A   Overcast
5:54 PM 48.9 °F - 39.0 °F 69% 29.77 in 10.0 mi West 19.6 mph 32.2 mph N/A   Mostly Cloudy
6:06 PM 48.0 °F - 37.0 °F 66% 29.76 in 10.0 mi West 29.9 mph 36.8 mph N/A   Overcast
6:54 PM 45.0 °F 37.6 °F 36.0 °F 71% 29.83 in 10.0 mi West 17.3 mph 29.9 mph N/A   Overcast
7:54 PM 43.0 °F 34.8 °F 32.0 °F 65% 29.87 in 10.0 mi West 18.4 mph 26.5 mph N/A   Overcast
8:54 PM 42.1 °F 32.3 °F 30.9 °F 65% 29.91 in 10.0 mi West 24.2 mph 42.6 mph N/A   Overcast
9:08 PM 42.1 °F 32.3 °F 30.0 °F 62% 29.88 in 10.0 mi West 24.2 mph 39.1 mph N/A   Overcast
9:49 PM 41.0 °F 30.5 °F 30.2 °F 65% 29.90 in 10.0 mi West 26.5 mph 40.3 mph N/A   Overcast
9:54 PM 41.0 °F 31.9 °F 30.9 °F 67% 29.94 in 10.0 mi West 19.6 mph 40.3 mph N/A   Overcast
10:40 PM 41.0 °F 31.4 °F 30.0 °F 65% 29.93 in 10.0 mi West 21.9 mph 34.5 mph N/A   Overcast
10:54 PM 41.0 °F 31.4 °F 30.0 °F 65% 29.96 in 10.0 mi West 21.9 mph 32.2 mph N/A   Overcast
11:54 PM 39.9 °F 29.7 °F 30.0 °F 68% 29.98 in 10.0 mi West 23.0 mph 29.9 mph N/A   Overcast